EW2580 Weather Reports


time (UTC)temp
C
wind
direction
speed
KPH
gust
KPH
rain 1hr
cm
rain 24hr
cm
rain mn
cm
humidity
%
barometer
mb
20260504014539 7 261 0.0 3.2 0.00 0.00 0.00 67 1013.0
20260504013039 8 261 0.0 1.6 0.00 0.00 0.00 62 1012.9
20260504011535 9 261 0.0 4.8 0.00 0.00 0.00 60 1012.8
20260504010035 10 211 0.0 4.8 0.00 0.00 0.00 57 1012.8
20260504004534 10 274 0.0 4.8 0.00 0.00 0.00 51 1012.7
20260504003041 11 26 0.0 8.0 0.00 0.00 0.00 47 1012.7
20260504001533 11 215 0.0 4.8 0.00 0.00 0.00 45 1012.6
20260504000032 11 140 0.0 6.4 0.00 0.00 0.00 48 1012.6
20260503234533 12 167 1.6 8.0 0.00 0.00 0.00 45 1012.5
20260503233037 12 234 1.6 4.8 0.00 0.00 0.00 41 1012.5
20260503231531 12 20 1.6 14.5 0.00 0.00 0.00 40 1012.6
20260503230031 12 42 4.8 25.7 0.00 0.00 0.00 40 1012.5
20260503224530 12 240 1.6 12.9 0.00 0.00 0.00 41 1012.4
20260503223030 12 202 9.7 19.3 0.00 0.00 0.00 40 1012.5
20260503221527 12 84 8.0 25.7 0.00 0.00 0.00 40 1012.6
20260503220028 12 229 6.4 22.5 0.00 0.00 0.00 39 1012.4
20260503214527 12 249 4.8 24.1 0.00 0.00 0.00 39 1012.5
20260503213026 12 105 3.2 16.1 0.00 0.00 0.00 40 1012.5
20260503211527 13 342 4.8 22.5 0.00 0.00 0.00 37 1012.6
20260503210024 12 109 3.2 16.1 0.00 0.00 0.00 38 1012.4
20260503204522 12 303 8.0 24.1 0.00 0.00 0.00 37 1012.6
20260503203029 12 56 4.8 19.3 0.00 0.00 0.00 40 1012.8
20260503201520 12 309 3.2 19.3 0.00 0.00 0.00 40 1012.9
20260503200018 12 235 6.4 17.7 0.00 0.00 0.00 40 1013.1
20260503194517 12 103 3.2 22.5 0.00 0.00 0.00 40 1013.3
20260503193014 12 188 8.0 25.7 0.00 0.00 0.00 42 1013.5
20260503191513 12 304 6.4 24.1 0.00 0.00 0.00 38 1013.6
20260503190013 12 337 16.1 35.4 0.00 0.00 0.00 38 1013.7
20260503184516 12 266 6.4 20.9 0.00 0.00 0.00 39 1013.9
20260503183007 12 323 6.4 22.5 0.00 0.00 0.00 40 1014.2
20260503181505 11 25 4.8 29.0 0.00 0.00 0.00 44 1014.4
20260503180003 11 341 6.4 27.4 0.00 0.00 0.00 40 1014.4
20260503174601 11 355 6.4 24.1 0.00 0.00 0.00 44 1014.8
20260503173059 11 313 4.8 22.5 0.00 0.00 0.00 41 1014.7
20260503171610 10 306 11.3 20.9 0.00 0.00 0.00 43 1015.0
20260503081539 -1 320 0.0 0.0 0.00 0.00 0.00 86 1016.3
20260503071542 0 320 0.0 1.6 0.00 0.00 0.00 84 1016.0
20260503054521 1 13 0.0 1.6 0.00 0.00 0.00 80 1016.2
20260503053011 1 13 0.0 0.0 0.00 0.00 0.00 78 1016.3
20260503051507 1 13 0.0 1.6 0.00 0.00 0.00 78 1016.4
20260503050005 1 13 0.0 1.6 0.00 0.00 0.00 77 1016.5
20260503044506 1 13 0.0 0.0 0.00 0.00 0.00 76 1016.6
20260503043059 1 13 0.0 3.2 0.00 0.00 0.00 75 1016.7
20260503041604 1 304 0.0 9.7 0.00 0.00 0.00 75 1016.7
20260503040054 1 296 0.0 3.2 0.00 0.00 0.00 74 1016.8
20260503034553 2 340 3.2 8.0 0.00 0.00 0.00 73 1016.8
20260503033053 2 355 0.0 3.2 0.00 0.00 0.00 73 1016.9
20260503031552 2 307 1.6 14.5 0.00 0.00 0.00 72 1016.8
20260503030056 2 294 0.0 4.8 0.00 0.00 0.00 71 1016.9
20260503024551 2 282 1.6 6.4 0.00 0.00 0.00 71 1017.0
20260503023059 2 298 1.6 6.4 0.00 0.00 0.00 70 1017.1
20260503021556 2 333 1.6 4.8 0.00 0.00 0.00 69 1017.1
20260503020054 2 5 1.6 8.0 0.00 0.00 0.00 69 1017.1